Location: Ripley
(48.3812°N, 115.4473°W)
Time: 04:09:47
(UTC+00:00)

O/OREOS (USA 219) - Visible Passes

Search period start: 28 June 2022 00:00
Search period end: 08 July 2022 00:00
Orbit: 621 x 646 km, 72.0° (Epoch: 22 May)

Date Brightness Start Highest point End Pass type
(mag) Time Alt. Az. Time Alt. Az. Time Alt. Az.
28 Jun ? 07:47:31 10° NNW 07:51:46 35° NE 07:55:38 12° ESE visible
28 Jun ? 09:27:01 10° NW 09:31:08 32° WSW 09:33:02 23° SSW visible
29 Jun ? 06:31:31 10° NNE 06:33:39 13° NE 06:35:47 10° ENE visible
29 Jun ? 08:09:23 10° NNW 08:13:59 67° ENE 08:16:42 24° SE visible
29 Jun ? 09:50:01 10° WNW 09:52:52 16° W 09:54:06 15° WSW visible
30 Jun ? 06:52:39 10° N 06:56:13 21° NE 06:59:46 10° E visible
30 Jun ? 08:31:29 10° NNW 08:36:03 61° WSW 08:37:50 34° S visible
01 Jul ? 07:14:18 10° NNW 07:18:36 38° NE 07:21:37 18° ESE visible
01 Jul ? 08:53:55 10° NW 08:57:55 29° WSW 08:59:03 26° SW visible
02 Jul ? 05:58:08 10° N 06:00:33 14° NE 06:02:57 10° ENE visible
02 Jul ? 07:36:11 10° NNW 07:40:49 74° ENE 07:42:53 32° SE visible
02 Jul ? 09:17:04 10° WNW 09:19:37 15° W 09:20:18 14° WSW visible
03 Jul ? 06:19:23 10° N 06:23:06 23° NE 06:26:46 10° ESE visible
03 Jul ? 07:58:19 10° NW 08:02:50 55° WSW 08:04:11 39° SSW visible
04 Jul ? 06:41:04 10° NNW 06:45:27 41° ENE 06:48:07 21° ESE visible
04 Jul ? 08:20:49 10° NW 08:24:41 27° WSW 08:25:32 25° WSW visible
05 Jul ? 05:24:46 10° N 05:27:26 15° NE 05:30:05 10° ENE visible
05 Jul ? 07:02:59 10° NNW 07:07:38 81° ENE 07:09:30 36° SSE visible
05 Jul ? 08:44:11 10° WNW 08:46:22 13° W 08:46:55 13° WSW visible
06 Jul ? 05:46:08 10° N 05:49:58 25° NE 05:53:30 11° ESE visible
06 Jul ? 07:25:10 10° NW 07:29:38 49° WSW 07:30:55 38° SSW visible
07 Jul ? 06:07:50 10° NNW 06:12:18 45° ENE 06:14:57 22° ESE visible
07 Jul ? 07:47:44 10° NW 07:51:27 24° WSW 07:52:23 23° WSW visible
